Regional Weather Roundup
Issued by NWS

Home | Current Version | Previous Version | Text Only | Print | Product List | Glossary Off
Versions: 1 2 3 4 5 6 7 8 9 10 11 12 13 14 15 16 17 18 19 20 21 22 23 24 25 26 27 28 29 30 31 32 33 34 35 36 37 38 39 40 41 42 43 44 45 46 47 48 49 50

000
ASUS43 KOAX 251002
RWRNE

WEATHER ROUNDUP FOR NEBRASKA
NATIONAL WEATHER SERVICE OMAHA NE
500 AM CDT SUN JUN 25 2017

NOTES: SATELLITE DATA IS BEING USED TO AUGMENT CLOUD COVER ABOVE
       12000 FEET.
       "FAIR" INDICATES FEW OR NO CLOUDS BELOW 12,000 FEET WITH NO
       SIGNIFICANT WEATHER AND/OR OBSTRUCTIONS TO VISIBILITY.

  * THESE STATIONS DO NOT REPORT WEATHER SUCH AS RAIN...SNOW OR FOG.

NEZ001>004-019>022-054>056-251100-
NEBRASKA PANHANDLE

CITY           SKY/WX    TMP DP  RH WIND       PRES   REMARKS
SCOTTSBLUFF    CLOUDY    58  34  40 E10       30.37S
ALLIANCE       CLOUDY    53  38  56 SE6       30.37S
CHADRON        CLOUDY    52  38  58 NE7       30.36R
GORDON         FAIR      48  40  74 CALM      30.38S
KIMBALL        CLOUDY    51  45  78 NE3       30.37S
SIDNEY         CLOUDY    53  42  66 NE7       30.36S
$$

NEZ057>060-069>072-079>082-251100-
SOUTHWEST NEBRASKA

CITY           SKY/WX    TMP DP  RH WIND       PRES   REMARKS
NORTH PLATTE   CLOUDY    54  40  59 CALM      30.35R
IMPERIAL       CLOUDY    52  48  86 NE3       30.33S
LEXINGTON      CLOUDY    56  40  56 NE7       30.34R
MCCOOK         CLOUDY    55  51  86 NW7       30.32R
OGALLALA       CLOUDY    53  37  54 NE7       30.36S
$$

NEZ005>010-023>029-035>040-094-251100-
NORTH CENTRAL NEBRASKA

CITY           SKY/WX    TMP DP  RH WIND       PRES   REMARKS
VALENTINE      CLOUDY    47  35  63 NW6       30.36R
AINSWORTH      CLOUDY    49  40  70 W5        30.36S
BROKEN BOW     CLOUDY    53  39  59 N8        30.34S
O`NEILL        CLEAR     46  42  86 W7        30.33S
ORD            CLOUDY    50  39  66 N5        30.32F
THEDFORD       MOCLDY    47  39  73 CALM      30.37S
$$

NEZ041-046>049-061>064-073>077-083>087-251100-
SOUTH CENTRAL NEBRASKA

CITY           SKY/WX    TMP DP  RH WIND       PRES   REMARKS
GRAND ISLAND   PTCLDY    52  43  71 N5        30.33R
AURORA         MOCLDY    49  43  79 N5        30.31R
HASTINGS       MOCLDY    54  43  66 NE6       30.33R
HEBRON         PTCLDY    55  45  69 CALM      30.30R
HOLDREGE       MOCLDY    50  42  72 N3        30.33R
KEARNEY *      CLOUDY    54  41  62 N9        30.34R
YORK           CLEAR     46  43  87 N10       30.31R
$$

NEZ011>018-030>034-042>045-251100-
NORTHEAST NEBRASKA

CITY           SKY/WX    TMP DP  RH WIND       PRES   REMARKS
NORFOLK        PTCLDY    46  40  79 W3        30.30S
ALBION         CLOUDY    50  41  69 NW5       30.32R
BLAIR          PTCLDY    53  43  69 W3        30.28R
FREMONT        MOCLDY    55  43  64 NW3       30.30R
TEKAMAH        PTCLDY    49  41  74 W8        30.27R
WAYNE          CLEAR     43  42  99 CALM      30.29R
$$

NEZ050>053-065>068-078-088>093-251100-
SOUTHEAST NEBRASKA

CITY           SKY/WX    TMP DP  RH WIND       PRES   REMARKS
LINCOLN        PTCLDY    50  44  80 N8        30.31R
OMAHA EPPLEY   PTCLDY    54  45  71 N3        30.27R
BEATRICE       PTCLDY    51  48  92 CALM      30.29R
FALLS CITY     CLEAR     52  48  86 NW7       30.24R
NEBRASKA CITY  CLEAR     55  46  70 N6        30.27R
PLATTSMOUTH    CLEAR     54  44  69 NW6       30.27R
$$

NEZ044-045-051>053-067-251100-
OMAHA AREA

CITY           SKY/WX    TMP DP  RH WIND       PRES   REMARKS
OMAHA EPPLEY   PTCLDY    54  45  71 N3        30.27R
BLAIR          PTCLDY    53  43  69 W3        30.28R
FREMONT        MOCLDY    55  43  64 NW3       30.30R
MILLARD        PTCLDY    57  44  62 NW7       30.28R
OFFUTT AFB     PTCLDY    51  43  74 NW6       30.27R
PLATTSMOUTH    CLEAR     54  44  69 NW6       30.27R
WAHOO          FAIR      54  40  59 NW7       30.29R
$$



USA.gov is the U.S. government's official web portal to all federal, state and local government web resources and services.